C/2014 W9 ( PanSTARRS )

Japanese version
Home page
Updated on June 11, 2016

---------------------------------------------------------------------

* Profile

Discovery Date November 22, 2014
Magnitude 20.5 mag
Discoverer Pan-STARRS 1 telescope (Haleakala)

* Pictures

* Orbital Elements

Epoch 2015 Feb. 27.0 TT = JDT 2457080.5
T 2015 Feb. 15.70597 TT                                 MPCW
q   1.5874565            (2000.0)            P               Q
n   0.02641721     Peri.  167.76985     -0.98620882     +0.15134842
a  11.1654967      Node    21.28839     -0.16309971     -0.81998588
e   0.8578248      Incl.   10.63058     -0.02811840     -0.55201161
P  37.3
From 110 observations 2014 Oct. 25-2015 June 8, mean residual 0".5.

* Magnitudes Graph

        m1 = 11.0 + 5 log d + 25.0 log r

---------------------------------------------------------------------

The orbital elements are published on M.P.E.C. 2015-M77.
The magnitudes graphs are made with Comet for Windows.

---------------------------------------------------------------------

Copyright(C) Seiichi Yoshida (comet@aerith.net). All rights reserved.